This is the latest recevied weather packets stored in our database for station/object VK6WB. If no packets are shown the sender has not sent any weather packets the latest 10 day(s).
| Time | Temp. | Humidity | Pressure | Rain* | Wind** | Luminosity | Snow |
|---|---|---|---|---|---|---|---|
| 1778215805 | 22.22° C | 35% | 1022.6 hPa | 0 mm | - | 12 W/m² | - |
| 1778215204 | 22.22° C | 40% | 1022.8 hPa | 0 mm | - | 12 W/m² | - |
| 1778214604 | 21.67° C | 40% | 1023 hPa | 0 mm | - | 12 W/m² | - |
| 1778214004 | 21.67° C | 41% | 1023.2 hPa | 0 mm | - | 12 W/m² | - |
| 1778213404 | 21.11° C | 42% | 1023.5 hPa | 0 mm | - | 12 W/m² | - |
| 1778212805 | 21.11° C | 41% | 1023.7 hPa | 0 mm | - | 12 W/m² | - |
| 1778212204 | 21.11° C | 42% | 1023.9 hPa | 0 mm | - | 12 W/m² | - |
| 1778211604 | 21.11° C | 42% | 1024.2 hPa | 0 mm | - | 12 W/m² | - |
| 1778211004 | 20.56° C | 43% | 1024.3 hPa | 0 mm | - | 12 W/m² | - |
| 1778210404 | 20.56° C | 43% | 1024.5 hPa | 0 mm | - | 12 W/m² | - |
| 1778209804 | 20.56° C | 42% | 1024.6 hPa | 0 mm | - | 12 W/m² | - |
| 1778209204 | 20.56° C | 43% | 1024.8 hPa | 0 mm | - | 12 W/m² | - |
| 1778208604 | 20.56° C | 44% | 1024.9 hPa | 0 mm | - | 12 W/m² | - |
| 1778208004 | 20° C | 44% | 1025.1 hPa | 0 mm | - | 12 W/m² | - |
| 1778207404 | 19.44° C | 45% | 1025.1 hPa | 0 mm | - | 12 W/m² | - |
| 1778206804 | 20° C | 44% | 1024.9 hPa | 0 mm | - | 12 W/m² | - |
| 1778206204 | 19.44° C | 44% | 1025.1 hPa | 0 mm | - | 12 W/m² | - |
| 1778205604 | 18.89° C | 45% | 1025.2 hPa | 0 mm | - | 12 W/m² | - |
| 1778205004 | 18.89° C | 43% | 1025.4 hPa | 0 mm | - | 12 W/m² | - |
| 1778204404 | 18.89° C | 44% | 1025.4 hPa | 0 mm | - | 12 W/m² | - |
| 1778203804 | 18.89° C | 44% | 1025.5 hPa | 0 mm | - | 12 W/m² | - |
| 1778203204 | 18.89° C | 44% | 1025.7 hPa | 0 mm | - | 12 W/m² | - |
| 1778202604 | 18.89° C | 45% | 1025.7 hPa | 0 mm | - | 12 W/m² | - |
| 1778202004 | 18.33° C | 45% | 1025.9 hPa | 0 mm | - | 12 W/m² | - |
| 1778201404 | 18.33° C | 46% | 1025.9 hPa | 0 mm | - | 12 W/m² | - |
* Rain latest hour (hover to see other rain measurements)
** Current wind speed in m/s (hover to see current wind gust speed)